STARLINK-1357, 45565

Orbit data source: Space-Track

STARLINK-1357, 45565 is a payload satellite owned by SpaceX/Seattle (US) in LEO that was launched on Wed, 22 Apr 2020 UTC via an FALCON 9 launch vehicle from the Air Force Eastern Test Range (AFETR). Payloads include a variety of satellites, spacecraft, and rockets equipped with specific instruments for various scientific and technological missions. These include communications satellites like Starlink; space stations such as the ISS; scientific satellites like the Hubble; Earth observation satellites from companies like Planet Labs, Umbra, and HawkEye 360; GPS; miniature CubeSats for education and research; and military/defense satellites.

Loading next visibility...
STARLINK-1357 details
Identifier
45565, 2020-025AL
Orbit
LEO
Last TLE update9 hours ago
Origin
Flag of USSpaceX/Seattle (US)
ManufacturerSpaceX/Seattle
MissionOperational Commercial Communications
Bus & MotorSTARLINK, Unknown motor
Mass260 kg wet, ~248 kg dry
Launch date (UTC)
2020-04-22 (5 years ago)
Launch vehicle
FALCON 9
Launch site
Air Force Eastern Test Range (AFETR)
Object type
Payload
Rocket body
Debris
Shape & HBRBox + 1 Pan, 8.86 m
Radar Cross Section13.562 m², Large (>1 m²)

Expand to show TLE details & history

TLE from 9 hours ago
0 STARLINK-1357
1 45565U 20025AL  24361.11321340  .00022039  00000-0  14933-2 0  9993
2 45565  53.0536 255.4636 0001198  77.0410 283.0712 15.06412606258670
Epoch: 2024-12-26T02:43Z
Definitive object data (Epoch: 2024-12-26T02:43:01.637Z)
Latitude-0.00009°
Longitude119.60944°
Altitude547.864 km
Speed7.589 km/s
True Right ascension17h 01m 51s
True Declination0° 00' 00"
Sunlit
Object was in daylight at TLE epoch
Visualization TLE readout
Latitude-26.48514°
Longitude-40.17573°
Altitude555.513 km
Speed7.584 km/s
Apparent Right ascension03h 19m 42s
Apparent Declination-48° 13' 07"
Sunlit
Object is in full shadow
Visualization observer readout
Local Sidereal Time10:58:45
Azimuth237.004° WSW
Elevation-43.832°
Doppler factor1
Orbital elements
Apogee altitude548.273 km
Perigee altitude546.614 km
Semi-major axis6,925.581 km
Eccentricity0.0001198
Inclination53.0536°
RAAN255.4636°
Arg. of periapsis77.041°
True anomaly283.05783°
Mean anomaly283.0712°
Eccentric anomaly283.06451°
Mean motion3.76581 °/min
BSTAR0.0014933
Orbital period95.6 mins
Loading maneuver chart data...
Loading historical data...
Loading historical data...
Loading historical data...
Loading historical data...
Loading historical data...
Loading historical data...
Loading historical data...

STARLINK-1357 Visibility forecast

Observer location: undefined°, undefined

Span
Click to sort rows by Start time (UTC) header in descending order
Start Az.
Max El. time (UTC)
Max El. Az.
Max El.
End time (UTC)
End Az.
5 mins2024-12-26 18:47:23.037Z172.487° S2024-12-26 18:50:23.037Z119.366° SE19.396°2024-12-26 18:52:23.037Z86.018° E
6 mins2024-12-26 20:26:23.037Z251.129° W2024-12-26 20:29:23.037Z337.037° NNW38.886°2024-12-26 20:32:23.037Z39.851° NE
5 mins2024-12-27 01:29:23.037Z349.932° N2024-12-27 01:31:23.037Z38.506° NE24.606°2024-12-27 01:34:23.037Z86.366° E
6 mins2024-12-27 03:08:23.037Z292.59° NW2024-12-27 03:10:23.037Z241.339° WSW38.2°2024-12-27 03:14:23.037Z148.749° SSE
|